Location: Asheville, NC
(35.6000°N, 82.5500°W)
Time: 18:36:58
(UTC-04:00)

Vanguard 2 Rocket - Pass Details

Date: 09 March 2018
Orbit: 553 x 3328 km, 32.9° (Epoch: 19 June)

Event Time Altitude Azimuth Distance (km) Brightness Sun altitude
Rises 03:02:44 0° 264° (W) 5,699 - -44.9°
Reaches altitude 10° 03:09:12 10° 242° (WSW) 5,267 - -43.8°
Maximum altitude 03:15:58 14° 217° (SW) 5,398 - -42.6°
Drops below altitude 10° 03:23:42 10° 192° (SSW) 6,098 - -41.3°
Exits shadow 03:27:25 - 183° (S) 6,556 11.0 -40.6°
Sets 03:32:54 0° 171° (S) 7,301 11.4 -39.6°
